Location: Mascot Post Office (historical)
(40.2645°N, 99.5462°W)
Time: 02:15:36
(UTC+00:00)

Nimbus 7 Rocket - Pass Details

Date: 14 July 2020
Orbit: 922 x 965 km, 99.4° (Epoch: 14 August)

Event Time Altitude Azimuth Distance (km) Brightness Sun altitude
Rises 05:30:39 0° 18° (NNE) 3,592 8.2 -25.8°
Reaches altitude 10° 05:33:09 10° 23° (NNE) 2,640 7.4 -26.0°
Maximum altitude 05:38:56 57° 101° (ESE) 1,080 4.5 -26.3°
Enters shadow 05:39:06 57° 108° (ESE) 1,082 4.5 -26.3°
